Hourly Data Report for September 13, 2012

All times are specified in Local Standard Time (LST). Add 1 hour to adjust for Daylight Saving Time where and when it is observed.

MONTREAL/MIRABEL INT'L A
QUEBEC

45°40'00.000" N
74°02'00.000" W
82.60 m
7035290
YMX

Download Data

Hourly Data (September 2012)
Hourly Data Report for November 30, 1999
Temp Definition
°C
Dew Point Temp Definition
°C
Rel Hum Definition
%
Wind Dir Definition
10's deg

Wind Spd Definition
km/h
Visibility Definition
km
Stn Press Definition
kPa
Hmdx Definition


Wind Chill Definition


Weather Definition


00:00 -4.0 -7.9 74 35 9 24.1 102.05 -8 Mainly Clear
01:00 -3.2 -5.5 84 36 11 24.1 102.08 -7 Mostly Cloudy
02:00 -4.0 -7.3 78 35 9 24.1 102.18 -8 Mostly Cloudy
03:00 -4.4 -7.8 77 35 9 24.1 102.18 -8 Mostly Cloudy
04:00 -5.3 -9.2 74 33 4 24.1 102.25 -7 Mostly Cloudy
05:00 -4.6 -7.7 79 35 7 24.1 102.28 -8 Mostly Cloudy
06:00 -4.9 -7.8 80 35 7 24.1 102.39 -8 Mostly Cloudy
07:00 -5.5 -9.6 73 33 9 32.2 102.49 -10 Mostly Cloudy
08:00 -5.0 -7.5 83 34 13 72.4 102.49 -10 Mostly Cloudy
09:00 -4.5 -6.6 85 35 13 72.4 102.55 -10 Mostly Cloudy
10:00 -4.3 -7.3 80 35 9 72.4 102.59 -8 Mostly Cloudy
11:00 -3.0 -4.8 87 36 19 72.4 102.59 -9 Mainly Clear
12:00 -2.8 -7.0 73 1 17 72.4 102.59 -8 Mainly Clear
13:00 -2.6 -8.5 64 36 20 72.4 102.55 -9 Mainly Clear
14:00 -2.5 -6.7 73 3 15 72.4 102.59 -7 Mainly Clear
15:00 -2.5 -5.7 79 2 13 72.4 102.62 -7 Mainly Clear
16:00 -3.5 -8.8 67 2 15 72.4 102.65 -9 Mainly Clear
17:00 -4.8 -9.7 69 36 6 40.2 102.69 -8 Clear
18:00 -5.2 -8.6 77 35 4 40.2 102.72 -7 Clear
19:00 -6.3 -12.2 63 0 40.2 102.76 Clear
20:00 -6.2 -11.5 66 33 6 40.2 102.76 -9 Clear
21:00 -8.2 -11.2 79 30 6 40.2 102.76 -11 Clear
22:00 -9.1 -12.1 79 29 4 40.2 102.72 -11 Clear
23:00 -9.7 -12.3 81 29 4 40.2 102.69 -12 Clear

Notes on Data Quality.

Legend

  • E = Estimated
  • M = Missing
  • NA = Not Available
  • ‡ = Partner data that is not subject to review by the National Climate Archives
Date modified: